Location: Unspecified
(0.0000°N, 0.0000°E)
Time: 18:23:22
(UTC+00:00)

Vanguard 1 Rocket - Pass Details

Date: 19 April 2026
Orbit: 655 x 4212 km, 34.3° (Epoch: 17 May)

Event Time Altitude Azimuth Distance (km) Brightness Sun altitude
Rises 23:35:26 0° 297° (WNW) 8,399 12.5 -77.4°
Reaches altitude 10° 23:45:11 10° 314° (NW) 7,380 12.0 -78.4°
Maximum altitude 00:00:32 19° 352° (N) 6,048 11.5 -78.9°
Drops below altitude 10° 00:12:44 10° 32° (NNE) 5,811 11.5 -78.4°
Sets 00:18:49 0° 50° (NE) 6,177 11.8 -77.9°
